Regional Weather Roundup
Issued by NWS

Home | Current Version | Previous Version | Text Only | Print | Product List | Glossary On
Versions: 1 2 3 4 5 6 7 8 9 10 11 12 13 14 15 16 17 18 19 20 21 22 23 24 25 26
000
ASUS42 KKEY 271610
RWRKEY

FLORIDA REGIONAL WEATHER ROUNDUP FOR THE FLORIDA KEYS
NATIONAL WEATHER SERVICE KEY WEST FLORIDA
1200 PM EDT FRI MAY 27 2016

...SOUTH FLORIDA AND THE KEYS...

CITY           SKY/WX    TMP DP  RH WIND       PRES   REMARKS
FORT MYERS     SUNNY     86  60  41 E12G17    30.01S
SW REGIONAL AP MOSUNNY   86  61  42 E12       30.01S
NAPLES         MOSUNNY   86  63  45 E10       30.00S
MIAMI          MOSUNNY   84  67  56 E13G20    30.00S
WEST KENDALL   MOSUNNY   86  68  54 E9G20     29.99S
HOMESTEAD      NOT AVBL
MARATHON       PTSUNNY   83  70  64 NE13      29.99R
BOCA CHICA NAS MOSUNNY   87  70  56 E13       29.98S HX  92
KEY WEST INTL  PTSUNNY   84  70  62 E13       29.99R

...INTERNATIONAL WEATHER...

CITY           SKY/WX    TMP DP  RH WIND       PRES   REMARKS
NASSAU BAHAMAS MOSUNNY   88  73  62 N6        29.98F HX  96
CANCUN MEXICO  PTSUNNY   88  73  62 SE12      29.92S HX  96
COZUMEL MEXICO PTSUNNY   84  73  70 SE12      29.92S HX  91

ADJACENT COASTAL WATERS...

STATION/POSITION TIME  SKY/WX   TEMP    WIND        PRES    WAVE
                                AIR SEA DIR/SP/G            HT/PER
                 (UTC)          (F)     (DEG/KT/KT) (MB)    (FT/S)
PULASKI SHOAL LI 1600            80      80/ 12/ 13 1015.7R
SAND KEY         1550            79     120/ 12/ 14 1015.7R
SOMBRERO KEY     NOT AVBL
LONG KEY         1500            78 81   20/ 14/ 16 1015.9R
MOLASSES REEF    1600            77 83   50/  8/  9 1016.1R
FOWEY ROCKS      1600            80 82   50/  8/ 10 1016.4S

$$




USA.gov is the U.S. government's official web portal to all federal, state and local government web resources and services.